C31FR-13 Weather Reports


Display with metric or nautical units.
time (UTC)temp
F
wind
direction
speed
MPH
gust
MPH
rain 1hr
in
rain 24hr
in
rain mn
in
humidity
%
barometer
mb
20260504223603 49 0.0 0.0 0.00 0.00 0.00 86 1012.8
20260504222603 51 0.0 0.0 0.00 0.00 0.00 83 1012.6
20260504222102 51 0.0 0.0 0.00 0.00 0.00 83 1012.7
20260504221102 51 0.0 0.0 0.00 0.00 0.00 80 1012.7
20260504220602 51 0.0 0.0 0.00 0.00 0.00 78 1012.7
20260504215602 50 0.0 0.0 0.00 0.00 0.00 85 1012.6
20260504215102 51 0.0 0.0 0.00 0.00 0.00 85 1012.5
20260504214602 51 0.0 0.0 0.00 0.00 0.00 84 1012.5
20260504214103 52 0.0 0.0 0.00 0.00 0.00 81 1012.5
20260504213603 52 0.0 0.0 0.00 0.00 0.00 83 1012.6
20260504213102 51 0.0 0.0 0.00 0.00 0.00 84 1012.5
20260504212603 52 0.0 0.0 0.00 0.00 0.00 82 1012.5
20260504212103 51 0.0 0.0 0.00 0.00 0.00 84 1012.6
20260504211602 51 0.0 0.0 0.00 0.00 0.00 85 1012.6
20260504211103 51 0.0 0.0 0.00 0.00 0.00 83 1012.5
20260504210603 51 0.0 0.0 0.00 0.00 0.00 86 1012.5
20260504205603 51 0.0 0.0 0.00 0.00 0.00 87 1012.7
20260504205102 52 0.0 0.0 0.00 0.00 0.00 84 1013.0
20260504204602 52 0.0 0.0 0.00 0.00 0.00 83 1013.3
20260504204102 53 0.0 0.0 0.00 0.00 0.00 83 1013.5
20260504203103 53 0.0 0.0 0.00 0.00 0.00 87 1013.4
20260504202603 53 0.0 0.0 0.00 0.00 0.00 89 1013.2
20260504201603 53 0.0 0.0 0.00 0.00 0.00 94 1013.5
20260504201102 53 0.0 0.0 0.00 0.00 0.00 89 1013.4
20260504200602 54 0.0 0.0 0.00 0.00 0.00 93 1013.3
20260504195102 54 0.0 0.0 0.00 0.00 0.00 93 1013.1
20260504194602 53 0.0 0.0 0.00 0.00 0.00 97 1012.9
20260504193602 53 0.0 0.0 0.00 0.00 0.00 97 1012.7
20260504192602 54 0.0 0.0 0.00 0.00 0.00 97 1012.6
20260504192102 54 0.0 0.0 0.00 0.00 0.00 94 1012.5
20260504191602 54 0.0 0.0 0.00 0.00 0.00 93 1012.4
20260504191103 54 0.0 0.0 0.00 0.00 0.00 92 1012.3
20260504185603 54 0.0 0.0 0.00 0.00 0.00 87 1011.9
20260504185102 54 0.0 0.0 0.00 0.00 0.00 87 1011.7
20260504184602 55 0.0 0.0 0.00 0.00 0.00 90 1011.5
20260504184102 55 0.0 0.0 0.00 0.00 0.00 91 1011.3
20260504183602 55 0.0 0.0 0.00 0.00 0.00 87 1011.3
20260504183103 55 0.0 0.0 0.00 0.00 0.00 89 1011.2
20260504182602 55 0.0 0.0 0.00 0.00 0.00 93 1011.1
20260504182103 55 0.0 0.0 0.00 0.00 0.00 93 1011.0
20260504181603 56 0.0 0.0 0.00 0.00 0.00 91 1011.1
20260504181102 56 0.0 0.0 0.00 0.00 0.00 90 1011.2
20260504180602 56 0.0 0.0 0.00 0.00 0.00 90 1011.2
20260504175602 56 0.0 0.0 0.00 0.00 0.00 94 1011.2
20260504175102 56 0.0 0.0 0.00 0.00 0.00 93 1011.1
20260504174602 56 0.0 0.0 0.00 0.00 0.00 94 1011.0
20260504174103 57 0.0 0.0 0.00 0.00 0.00 93 1011.0
20260504173603 56 0.0 0.0 0.00 0.00 0.00 92 1011.0
20260504173103 56 0.0 0.0 0.00 0.00 0.00 94 1011.1
20260504172102 56 0.0 0.0 0.00 0.00 0.00 91 1011.1
20260504171603 56 0.0 0.0 0.00 0.00 0.00 91 1011.0
20260504171103 56 0.0 0.0 0.00 0.00 0.00 95 1010.8
20260504170602 56 0.0 0.0 0.00 0.00 0.00 99 1010.8
20260504151102 57 0.0 0.0 0.00 0.00 0.00 94 1011.7
20260504150602 56 0.0 0.0 0.00 0.00 0.00 94 1011.8
20260504141102 58 0.0 0.0 0.00 0.00 0.00 84 1011.6
20260504140602 59 0.0 0.0 0.00 0.00 0.00 82 1011.6
20260504130603 57 0.0 0.0 0.00 0.00 0.00 77 1012.7
20260504130103 58 0.0 0.0 0.00 0.00 0.00 78 1012.6
20260504110603 62 0.0 0.0 0.00 0.00 0.00 50 1012.0
20260504100603 61 0.0 0.0 0.00 0.00 0.00 56 1012.7
20260504081603 56 0.0 0.0 0.00 0.00 0.00 78 1013.7
20260504081102 57 0.0 0.0 0.00 0.00 0.00 79 1013.7
20260504080602 56 0.0 0.0 0.00 0.00 0.00 87 1013.8
20260504070103 54 0.0 0.0 0.00 0.00 0.00 96 1014.3
20260504044102 52 0.0 0.0 0.00 0.00 0.00 97 1013.8
20260504043603 52 0.0 0.0 0.00 0.00 0.00 98 1013.8
20260504043103 52 0.0 0.0 0.00 0.00 0.00 96 1013.8
20260504042602 53 0.0 0.0 0.00 0.00 0.00 93 1013.9
20260504042102 53 0.0 0.0 0.00 0.00 0.00 91 1013.9
20260504041603 54 0.0 0.0 0.00 0.00 0.00 89 1013.8
20260504041103 53 0.0 0.0 0.00 0.00 0.00 89 1013.8
20260504040602 54 0.0 0.0 0.00 0.00 0.00 89 1013.8
20260504040103 54 0.0 0.0 0.00 0.00 0.00 89 1013.8
20260504035602 53 0.0 0.0 0.00 0.00 0.00 91 1013.9
20260504034602 54 0.0 0.0 0.00 0.00 0.00 89 1013.8
20260504034102 55 0.0 0.0 0.00 0.00 0.00 86 1013.8
20260504033602 54 0.0 0.0 0.00 0.00 0.00 88 1013.9
20260504033102 54 0.0 0.0 0.00 0.00 0.00 90 1013.9
20260504032602 54 0.0 0.0 0.00 0.00 0.00 89 1013.9
20260504032102 54 0.0 0.0 0.00 0.00 0.00 91 1014.0
20260504031603 54 0.0 0.0 0.00 0.00 0.00 87 1014.0
20260504031102 54 0.0 0.0 0.00 0.00 0.00 89 1014.1
20260504030602 53 0.0 0.0 0.00 0.00 0.00 90 1014.1
20260504025602 54 0.0 0.0 0.00 0.00 0.00 86 1014.0
20260504025103 54 0.0 0.0 0.00 0.00 0.00 87 1014.0
20260504024102 54 0.0 0.0 0.00 0.00 0.00 88 1014.0
20260504023602 54 0.0 0.0 0.00 0.00 0.00 89 1014.1
20260504023103 54 0.0 0.0 0.00 0.00 0.00 88 1014.1
20260504022602 54 0.0 0.0 0.00 0.00 0.00 90 1014.1
20260504022102 54 0.0 0.0 0.00 0.00 0.00 90 1014.0
20260504021602 54 0.0 0.0 0.00 0.00 0.00 91 1014.0
20260504021103 54 0.0 0.0 0.00 0.00 0.00 91 1014.1
20260504020603 53 0.0 0.0 0.00 0.00 0.00 93 1014.0
20260504015604 53 0.0 0.0 0.00 0.00 0.00 93 1014.3
20260504015102 54 0.0 0.0 0.00 0.00 0.00 90 1014.3
20260504014602 54 0.0 0.0 0.00 0.00 0.00 86 1014.3
20260504014103 53 0.0 0.0 0.00 0.00 0.00 90 1014.3
20260504013603 53 0.0 0.0 0.00 0.00 0.00 93 1014.4
20260504013102 53 0.0 0.0 0.00 0.00 0.00 93 1014.3
20260504012102 53 0.0 0.0 0.00 0.00 0.00 89 1014.3
20260504011602 53 0.0 0.0 0.00 0.00 0.00 89 1014.3
20260504011102 54 0.0 0.0 0.00 0.00 0.00 87 1014.2
20260504010602 54 0.0 0.0 0.00 0.00 0.00 88 1014.2
20260504005606 54 0.0 0.0 0.00 0.00 0.00 89 1014.3
20260504004603 54 0.0 0.0 0.00 0.00 0.00 88 1014.3
20260504004103 54 0.0 0.0 0.00 0.00 0.00 87 1014.4
20260504003602 53 0.0 0.0 0.00 0.00 0.00 88 1014.5
20260504003102 54 0.0 0.0 0.00 0.00 0.00 92 1014.6
20260504002603 54 0.0 0.0 0.00 0.00 0.00 91 1014.6
20260504002103 54 0.0 0.0 0.00 0.00 0.00 90 1014.7
20260504001602 54 0.0 0.0 0.00 0.00 0.00 88 1014.7
20260504001102 55 0.0 0.0 0.00 0.00 0.00 91 1014.6
20260503235602 54 0.0 0.0 0.00 0.00 0.00 92 1014.6
20260503235102 54 0.0 0.0 0.00 0.00 0.00 93 1014.6
20260503234603 54 0.0 0.0 0.00 0.00 0.00 93 1014.6
20260503234102 54 0.0 0.0 0.00 0.00 0.00 89 1014.7
20260503233602 54 0.0 0.0 0.00 0.00 0.00 88 1014.8
20260503233102 53 0.0 0.0 0.00 0.00 0.00 90 1014.8
20260503232602 54 0.0 0.0 0.00 0.00 0.00 90 1014.8
20260503232102 54 0.0 0.0 0.00 0.00 0.00 90 1014.8
20260503231602 54 0.0 0.0 0.00 0.00 0.00 87 1014.8
20260503231103 54 0.0 0.0 0.00 0.00 0.00 87 1014.8
20260503230602 54 0.0 0.0 0.00 0.00 0.00 89 1014.8
20260503225603 54 0.0 0.0 0.00 0.00 0.00 89 1014.9
20260503225102 55 0.0 0.0 0.00 0.00 0.00 88 1014.8
20260503224603 55 0.0 0.0 0.00 0.00 0.00 88 1014.9
20260503224103 55 0.0 0.0 0.00 0.00 0.00 88 1014.9